Showing default

KAZSTSAT, 43783

Orbit data source: Space-Track

KAZSTSAT, 43783 is a payload satellite owned by Ghalam LLP (KZ) in SSO that was launched on Mon, 03 Dec 2018 UTC via an FALCON 9 launch vehicle from the Air Force Western Test Range (AFWTR). Payloads include a variety of satellites, spacecraft, and rockets equipped with specific instruments for various scientific and technological missions. These include communications satellites like Starlink; space stations such as the ISS; scientific satellites like the Hubble; Earth observation satellites from companies like Planet Labs, Umbra, and HawkEye 360; GPS; miniature CubeSats for education and research; and military/defense satellites.

Loading next visibility...
KAZSTSAT details
Identifier
43783, 2018-099AB
Orbit
SSO
Last TLE update9 hours ago
Origin
Flag of KZGhalam LLP (KZ / KAZ)
ManufacturerSSTL (Astrium)
MissionOperational Commercial Science
Bus & MotorSSTL-X50, AOCS
Mass110 kg wet, ~100 kg dry
Launch date (UTC)
2018-12-03 (6 years ago)
Launch vehicle
FALCON 9
Launch site
Air Force Western Test Range (AFWTR)
Object type
Payload
Rocket body
Debris
Shape & HBRBox, 0.5 m
Radar Cross Section0.375 m², Medium (>0.1 m² and < 1m²)

Expand to show TLE details & history

TLE from 9 hours ago
0 KAZSTSAT
1 43783U 18099AB  24361.13655469  .00003385  00000-0  29248-3 0  9994
2 43783  97.5011  44.7905 0008510  63.9242 296.2856 14.97828546330704
Epoch: 2024-12-26T03:16Z
Definitive object data (Epoch: 2024-12-26T03:16:38.325Z)
Latitude0.00001°
Longitude-99.48947°
Altitude574.048 km
Speed7.575 km/s
True Right ascension02h 59m 09s
True Declination0° 00' 00"
Sunlit
Object was in full shadow at TLE epoch
Visualization TLE readout
Latitude-53.32873°
Longitude70.7435°
Altitude600.185 km
Speed7.555 km/s
Apparent Right ascension19h 50m 39s
Apparent Declination-71° 54' 24"
Sunlit
Object is in daylight
Visualization observer readout
Local Sidereal Time11:41:31
Azimuth157.135° SSE
Elevation-47.49°
Doppler factor1
Orbital elements
Apogee altitude576.52 km
Perigee altitude564.693 km
Semi-major axis6,948.744 km
Eccentricity0.000851
Inclination97.5011°
RAAN44.7905°
Arg. of periapsis63.9242°
True anomaly296.19812°
Mean anomaly296.2856°
Eccentric anomaly296.24187°
Mean motion3.747 °/min
BSTAR0.00029248
Orbital period96.08 mins
Loading maneuver chart data...
Loading historical data...
Loading historical data...
Loading historical data...
Loading historical data...
Loading historical data...
Loading historical data...
Loading historical data...

KAZSTSAT Visibility forecast

Observer location: undefined°, undefined

Span
Click to sort rows by Start time (UTC) header in descending order
Start Az.
Max El. time (UTC)
Max El. Az.
Max El.
End time (UTC)
End Az.
5 mins2024-12-26 15:05:02.215Z50.237° ENE2024-12-26 15:08:02.215Z100.688° ESE17.89°2024-12-26 15:10:02.215Z133.635° SE
5 mins2024-12-26 16:41:02.215Z333.808° NNW2024-12-26 16:43:02.215Z285.865° WNW26.998°2024-12-26 16:46:02.215Z230.436° WSW
6 mins2024-12-27 03:28:02.215Z190.387° SSW2024-12-27 03:30:02.215Z249.391° W39.507°2024-12-27 03:34:02.215Z338.779° N
|